Weather in Shimorskoe

Russia / Nizhny Novgorod Oblast'     55°19′30″N   42°01′46″E
temp.,
°C
wind,
m/s
gust,
m/s
humid.,
%
clouds,
%
prec.,
mm/h
press.,
hPa
HPBL,
m
26 february, fri
fri2600:00+1w3899100 0.1 1012332
03:00+1w3799100 0.1 1012260
06:000ssw229898 0.1 101158
09:000sse4810099 1.1 1008238
12:00+2sw410100100 2.0 1005268
15:00+2sw511100100 2.7 1001281
18:00+2w515100100 1.6 998465
21:00+2w6149197 1.7 999699
27 february, sat
sat2700:00+1w6138999 0.0 998845
03:00+1w6139399 0.1 997758
06:00+1w61298100 0.4 997647
09:00−9nw71290100 1.8 999730
12:00−9nnw71189100 0.3 1003793
15:00−9nnw61091100 0.4 1006764
18:00−10n51091100 0.1 1009667
21:00−13nnw3995100 0.1 1011278
28 february, sun
sun2800:00−14nnw3797100 0.1 1012155
03:00−16nnw349792 0.1 101486
06:00−17nnw239637 0.0 101537
09:00−15n249445 0.0 1016239
12:00−11nnw248899 0.0 1016470
15:00−9n248899 0.1 1017569
18:00−12nne1195100 0.1 101721
21:00−13nne1197100 0.1 101920
1 march, mon
mon100:00−15ne119884 0.0 102120
03:00−16nw119878 0.1 102220
06:00−16wnw119864 0.0 102320
09:00−12sw119573 0.0 102470
12:00−7sw239088 0.0 1023317
15:00−5sw469393 0.0 1022438
18:00−5ssw489599 0.1 1019365
21:00−4ssw51095100 0.3 1016329
2 march, tue
tue200:00−2sw61197100 1.3 1013516
03:00−1wsw51198100 2.1 1010422
06:00+1w51098100 1.0 1008515
09:000wnw4998100 1.3 1007524
12:00+1wnw49100100 0.3 1007681
15:00+1nw5109792 0.4 1006753
18:00−1nw4128898 0.1 1007404
21:00−3nw499491 0.1 1008246